Zurück zum Katalog

NIMIQ 5

AktivKommunikationGEO
NORAD 35873·PAYLOAD·🇨🇦 Canada

Gestartet Sep 17, 2009 von Baikonur Cosmodrome

Loading…

TLE

AktuellSource: CelesTrak SupGP

Epoche: Sep 14, 2026, 04:59 UTC

1 35873C 09050A   26257.20833333 -.00003777  00000+0  00000+0 0  2577
2 35873   0.0236 246.5665 0002784 282.5166 186.4109  1.00271749    15

Verfolge NIMIQ 5 in Echtzeit mit AllMySat

Download on the App Store